Location: UBC Liquid-Mirror Observatory
(49.2876°N, 122.5728°W)
Time: 11:29:49
(UTC-07:00)

Daily predictions for brighter satellites

Satellite Brightness Start Highest point End
(mag) Time Altitude Azimuth Time Altitude Azimuth Time Altitude Azimuth
Cosmos 1975 4.0 20:32:08 10° SE 20:35:30 25° E 20:38:53 10° NNE
Lacrosse 5 rocket 1.2 20:37:18 10° WNW 20:41:05 74° SW 20:44:43 10° SE
BREEZE-M DEB (TANK) 1.1 20:42:12 10° W 20:44:11 80° S 20:47:10 10° ESE
Cosmos 1892 Rocket 4.2 20:41:13 10° NNW 20:45:40 63° W 20:50:05 10° S
Cosmos 1315 Rocket 3.9 20:41:54 10° SSW 20:45:49 50° WNW 20:49:49 10° N
Cosmos 1626 Rocket 3.8 20:42:25 10° N 20:46:46 52° ENE 20:51:02 10° SSE
H-2A R/B 3.2 20:44:08 10° ESE 20:47:32 26° ENE 20:50:59 10° N
EO 1 Delta rocket 3.9 20:44:39 10° NNE 20:49:16 67° E 20:54:18 10° S
Cosmos 1697 Rocket 3.9 20:46:05 10° SSE 20:50:11 21° E 20:54:15 10° NE
H-2A R/B 3.2 20:47:45 10° S 20:51:36 68° WSW 20:55:34 10° NNW
ALOS 2.9 20:47:16 10° S 20:51:54 61° W 20:56:33 10° NNW
Cosmos 2278 3.9 20:46:53 10° S 20:52:22 53° ESE 20:57:54 10° NE
Cosmos 2123 Rocket 4.1 20:46:25 10° N 20:52:39 88° W 20:58:49 10° S
Cosmos 1461 3.4 20:48:50 10° NW 20:52:53 56° WSW 20:56:46 10° SSE
Cosmos 1898 Rocket 3.8 20:48:55 10° NNW 20:54:08 51° ENE 20:59:17 10° SE
ERS-1 Rocket 3.1 20:49:19 10° SSE 20:54:13 57° ENE 20:59:09 10° N
Cosmos 1602 Rocket 3.6 20:50:46 10° N 20:55:15 63° ENE 20:59:39 10° SSE
Cosmos 1455 Rocket 3.0 20:51:00 10° S 20:55:19 79° E 20:59:43 10° NNE
NOSS 2-1 (D) 3.5 20:57:19 10° SW 21:01:17 87° NW 21:06:04 10° NE
NOSS 2-1 (C) 3.5 20:58:20 10° SW 21:02:19 88° NW 21:07:06 10° NE
Meteor 1-12 Rocket 4.4 20:58:33 10° S 21:04:11 59° E 21:09:56 10° NNE
Cosmos 2369 3.7 21:00:09 10° S 21:05:42 59° ESE 21:11:19 10° NE
Cosmos 1939 Rocket 3.1 21:03:57 10° SSE 21:08:01 58° ENE 21:12:08 10° N
Cosmos 1980 Rocket 3.5 21:08:26 10° SE 21:12:22 19° E 21:16:19 10° NE
Cosmos 1459 Rocket 4.5 21:07:32 10° SSE 21:13:01 38° E 21:18:34 10° NNE
Resurs 01 Rocket 4.4 21:10:40 10° SW 21:13:47 19° W 21:16:55 10° NW
ATLAS CENTAUR R/B 3.6 21:09:44 10° WSW 21:14:19 34° NW 21:18:45 10° NNE
Lacrosse 5 1.9 21:09:29 10° NW 21:14:35 82° NNE 21:18:37 16° ESE
Cosmos 2084 3.3 21:11:39 10° NW 21:15:40 89° W 21:18:58 16° SE
ARGOS 4.2 21:12:23 14° ESE 21:16:05 29° ENE 21:20:41 10° N
NOSS 2-1 (E) 3.9 21:14:19 10° SW 21:18:22 71° NW 21:23:19 10° NE
Cosmos 220 Rocket 4.2 21:14:45 10° NNW 21:19:00 71° WSW 21:23:10 10° SSE
USA 186 3.6 21:16:26 10° SSW 21:19:09 28° W 21:21:44 10° NW
Tiangong 1 2.4 21:16:38 10° SW 21:19:13 24° S 21:20:22 19° SE
Cosmos 1346 Rocket 4.5 21:16:04 10° NNW 21:19:39 34° W 21:23:15 10° SSW
SPOT 5 3.2 21:20:37 14° SE 21:24:43 52° ENE 21:29:24 10° N
Cosmos 1153 Rocket 4.4 21:19:11 10° S 21:25:20 75° E 21:31:30 10° NNE
RESURS DK-1 2.4 21:27:31 10° NNW 21:31:40 68° ENE 21:34:13 22° SE
Cosmos 1500 3.1 21:29:04 10° S 21:32:47 64° E 21:36:33 10° NNE
Cosmos 1606 Rocket 4.4 21:31:48 21° SE 21:33:51 31° E 21:37:45 10° NNE
MetOp-B 4.3 21:30:43 17° SE 21:34:46 58° ENE 21:40:01 10° N
Cosmos 2227 Rocket 3.5 21:30:00 10° NW 21:35:11 38° WSW 21:40:21 10° S
CZ-4 DEB 3.9 21:32:42 10° S 21:35:42 41° W 21:38:43 10° NNW
Cosmos 2263 Rocket 3.8 21:32:08 10° N 21:36:24 22° NE 21:39:56 13° E
PSLV R/B 3.8 21:36:12 29° ESE 21:37:03 36° ENE 21:39:55 10° N
USA 215 3.4 21:32:14 16° ESE 21:37:35 70° NNE 21:44:06 10° NW
Cosmos 1802 Rocket 4.3 21:32:57 10° SSE 21:39:05 51° E 21:45:18 10° NNE
EP 1 4.5 21:39:50 10° SW 21:42:19 70° NW 21:45:12 10° NE
Cosmos 1340 2.8 21:39:17 10° N 21:43:02 55° ENE 21:44:43 29° SE
Cosmos 2322 Rocket 4.0 21:45:09 13° E 21:45:09 13° E 21:46:44 10° ENE
CZ-4 SHROUD 3.7 21:43:50 34° ESE 21:44:30 40° ENE 21:47:26 10° N
Cosmos 2298 Rocket 4.4 21:39:37 10° NNW 21:44:53 62° WSW 21:49:29 13° S
Cosmos 1656 3.6 21:40:24 10° SSW 21:45:59 70° ESE 21:51:31 10° NNE
SL-08 RB Rocket 4.5 21:45:33 25° ESE 21:47:37 38° ENE 21:51:53 10° N
Cosmos 2297 Rocket 3.4 21:45:38 10° NW 21:50:51 39° WSW 21:56:04 10° S
Cosmos 2227 4.3 21:48:20 10° NNW 21:54:07 70° ENE 21:57:19 27° SE
Cosmos 2016 Rocket 4.0 21:52:14 16° SSE 21:57:07 58° E 22:03:11 10° NNE
Cosmos 1726 Rocket 3.9 21:56:28 32° SE 21:58:00 45° E 22:02:12 10° NNE
Envisat 3.6 21:54:39 10° S 21:59:34 54° W 22:04:34 10° NNW
YAOGAN 6 2.5 21:58:35 34° SSE 22:00:05 86° ENE 22:03:49 10° NNW
Cosmos 1937 Rocket 3.7 21:55:18 10° NNW 22:00:33 68° WSW 22:04:02 21° S
H-2A R/B 2.8 22:00:30 27° ESE 22:02:14 34° ENE 22:06:41 10° N
ASTEX 1 3.4 21:57:27 10° N 22:02:28 66° E 22:05:29 24° S
Terra 2.9 22:02:30 25° E 22:03:53 29° ENE 22:07:58 10° N
Cosmos 1743 2.6 22:03:31 24° S 22:05:50 85° E 22:09:47 10° N
Cosmos 1825 Rocket 3.7 22:02:37 10° NNW 22:07:03 71° W 22:09:39 24° S
Cosmos 2173 Rocket 4.0 22:03:33 10° S 22:09:56 88° W 22:16:19 10° N
Cosmos 2098 Rocket 4.1 22:07:38 22° SSE 22:12:08 57° E 22:17:47 10° NNE
Cosmos 1953 Rocket 3.6 22:11:38 10° NNW 22:16:05 78° W 22:18:06 32° S
Cosmos 990 Rocket 4.2 22:10:57 10° NNW 22:16:12 67° WSW 22:18:54 28° S
Lacrosse 5 rocket 3.6 22:18:19 10° WSW 22:19:38 12° WSW 22:20:53 10° SW
Cosmos 2100 Rocket 4.2 22:14:19 10° SSW 22:20:35 70° WNW 22:26:50 10° N
SPOT 1/Viking Rocket 3.5 22:18:31 32° SSE 22:21:03 87° WSW 22:26:19 10° NNW
Cosmos 2061 Rocket 4.2 22:15:32 10° SSW 22:21:50 75° W 22:28:07 10° N
CZ-4B R/B 3.5 22:17:23 10° NNE 22:22:02 50° E 22:22:56 44° SE
Tsikada Rocket 4.0 22:15:40 10° N 22:22:08 74° E 22:25:17 32° SSE
H-2A R/B 3.3 22:20:47 17° SSW 22:23:26 35° W 22:27:16 10° NNW
Cosmos 1842 3.1 22:19:36 10° N 22:23:33 90° SSW 22:24:18 57° S
Cosmos 1864 Rocket 4.5 22:21:48 31° SSE 22:24:45 62° E 22:30:47 10° NNE
deb Chang Zheng 4 4.3 22:24:13 10° N 22:28:36 56° WNW 22:32:57 10° SSW
GP-B 4.1 22:27:36 10° NNE 22:31:16 31° ENE 22:31:16 31° ENE
Cosmos 1697 Rocket 2.9 22:27:54 10° SW 22:33:33 73° WNW 22:39:13 10° NNE
Cosmos 1758 Rocket 4.0 22:30:51 10° NNW 22:35:10 57° W 22:36:40 36° SSW
Cosmos 1707 4.2 22:34:21 10° NNE 22:37:13 26° ENE 22:37:13 26° ENE
SL-16 R/B 3.0 22:39:10 33° E 22:39:10 33° E 22:43:32 10° NE
NOAA 11 4.4 22:38:49 33° S 22:41:17 66° WSW 22:46:46 10° NNW
Cosmos 1125 Rocket 3.4 22:37:17 10° NNW 22:42:32 89° ENE 22:43:49 53° SSE
Cosmos 2228 2.8 22:42:45 69° ESE 22:42:49 70° E 22:47:06 10° NNE
IGS 5A 3.7 22:43:02 52° ENE 22:43:03 52° ENE 22:47:07 10° N
Cosmos 1763 Rocket 3.3 22:44:11 29° SSW 22:46:50 88° WNW 22:51:56 10° NNE
Cosmos 1816 Rocket 4.5 22:41:54 10° N 22:48:20 89° ENE 22:50:46 41° S
Cosmos 2346 Rocket 4.5 22:43:15 10° N 22:49:29 66° ENE 22:51:10 47° SE
Meteor 2-5 Rocket 3.9 22:46:58 10° N 22:52:52 60° ENE 22:54:06 50° ESE
Cosmos 1725 Rocket 4.0 22:52:04 30° SSW 22:55:21 81° W 23:01:40 10° N
Cosmos 1980 Rocket 2.3 22:50:01 10° SSW 22:55:42 78° WNW 23:01:27 10° NNE
ARGOS 3.8 22:53:54 32° SSW 22:56:07 50° W 23:01:22 10° NNW
Cosmos 2360 Rocket 4.0 22:58:48 16° ENE 22:58:48 16° ENE 23:00:40 10° NE
Lacrosse 5 3.2 22:52:59 10° WNW 22:57:07 26° SW 22:57:49 25° SW
Cosmos 1666 3.3 22:57:15 50° W 22:57:36 52° WNW 23:01:20 10° N
Meteor 1-15 Rocket 4.3 22:55:14 37° SSW 22:57:43 87° W 23:03:38 10° NNE
Cosmos 2058 Rocket 3.6 22:59:08 39° SW 23:00:32 58° WNW 23:05:01 10° N
DELTA 2 DEB (DPAF) 4.1 23:01:08 70° SSW 23:01:29 75° WSW 23:06:00 10° NNW
Cosmos 841 Rocket 3.7 23:05:06 30° SW 23:07:42 70° WNW 23:12:55 10° NNE
DMSP B5D2-2 4.0 23:02:55 10° NNE 23:08:11 64° ESE 23:08:20 64° ESE
CZ-4C R/B 4.0 23:16:50 54° WSW 23:16:59 54° W 23:21:21 10° NNW
Meteor 2-17 Rocket 4.4 23:16:06 50° SSW 23:17:49 84° W 23:23:56 10° N
Cosmos 1441 Rocket 4.4 23:14:54 10° N 23:17:40 36° NNE 23:17:40 36° NNE
Meteor 1-24 Rocket 4.0 23:13:51 10° N 23:19:51 60° ENE 23:20:33 56° ESE
USA 215 3.5 23:19:35 45° S 23:20:48 51° SW 23:27:10 10° WNW
Cosmos 2263 Rocket 2.0 23:15:30 10° NNW 23:21:07 89° WSW 23:21:37 75° SSE
CARTOSAT-1 4.0 23:21:55 56° W 23:21:55 56° W 23:26:03 10° NNW
Cosmos 2233 Rocket 4.0 23:21:05 49° SSW 23:22:53 81° W 23:29:11 10° N
Cosmos 405 Rocket 3.8 23:20:30 10° NNW 23:23:26 40° WNW 23:23:26 40° WNW
Cosmos 2322 Rocket 2.0 23:26:54 78° SSE 23:27:10 80° ESE 23:32:49 10° NNE
Cosmos 540 Rocket 3.4 23:31:09 74° NE 23:31:09 74° NE 23:35:55 10° NNE
Cosmos 332 Rocket 3.9 23:32:00 69° NE 23:32:00 69° NE 23:36:20 10° NNE
Genesis I 4.3 23:29:17 10° NW 23:32:09 43° NNW 23:32:09 43° NNW
Cosmos 371 Rocket 4.0 23:37:22 45° NE 23:37:22 45° NE 23:40:50 10° NNE
Cosmos 372 Rocket 4.3 23:31:20 10° NNW 23:36:19 53° WSW 23:36:23 53° WSW
Cosmos 2034 Rocket 4.2 23:40:39 53° E 23:40:39 53° E 23:46:35 10° NNE
Terra 2.7 23:41:24 41° W 23:41:29 41° W 23:46:00 10° NNW
H-2A R/B 3.0 23:41:08 35° WSW 23:41:39 36° W 23:46:13 10° NNW
Cosmos 1812 Rocket 4.2 23:43:58 55° NNW 23:43:58 55° NNW 23:47:37 10° N
COSMOS 2428 4.5 23:49:05 19° ENE 23:49:05 19° ENE 23:51:21 10° NE
Cosmos 1375 Rocket 4.4 23:46:52 61° SSW 23:48:09 86° SE 23:54:49 10° NE
GEOS 3 Rocket 3.9 23:45:47 10° NE 23:50:52 64° NW 23:52:29 42° WSW
CZ-4B R/B 4.1 23:53:40 16° NNE 23:53:40 16° NNE 23:54:54 10° NNE
